Hourly Data Report for March 30, 2019

TORONTO CITY
ONTARIO
Current Station Operator: ECCC - MSC

43°40'00.000" N
79°24'00.000" W
112.50 m
6158355
71508
XTO

Download Data

Hourly Data (March 2019)
Hourly Data Report for March 30, 2019
TIME
LST
Temp Definition
°C
Dew Point Definition
°C
Rel Hum Definition
%
Precip. Amount Definition
mm

Wind Dir Definition
10's deg

Wind Spd Definition
km/h
Visibility Definition
km
Stn Press Definition
kPa
Hmdx Definition


Wind Chill Definition


Weather Definition


00:00 4.9 -5.8 46 0.0 LegendMM LegendMM   100.38     LegendNANA
01:00 5.1 -5.8 45 0.0 LegendMM LegendMM   100.30     LegendNANA
02:00 5.3 -5.9 44 0.0 LegendMM LegendMM   100.16     LegendNANA
03:00 4.9 -3.9 53 0.0 LegendMM LegendMM   100.09     LegendNANA
04:00 3.0 -1.5 72 1.1 LegendMM LegendMM   99.99     LegendNANA
05:00 2.2 -0.2 84 2.0 LegendMM LegendMM   99.85     LegendNANA
06:00 2.0 0.3 89 2.8 LegendMM LegendMM   99.75     LegendNANA
07:00 3.1 1.5 90 3.1 LegendMM LegendMM   99.70     LegendNANA
08:00 3.4 1.8 89 1.5 LegendMM LegendMM   99.55     LegendNANA
09:00 3.3 1.8 90 0.4 LegendMM LegendMM   99.49     LegendNANA
10:00 3.3 2.0 92 0.3 LegendMM LegendMM   99.35     LegendNANA
11:00 3.7 2.7 93 0.7 LegendMM LegendMM   99.21     LegendNANA
12:00 4.3 3.2 93 2.0 LegendMM LegendMM   99.09     LegendNANA
13:00 4.6 3.5 92 3.3 LegendMM LegendMM   99.05     LegendNANA
14:00 5.5 4.3 92 1.2 LegendMM LegendMM   98.97     LegendNANA
15:00 6.1 4.9 92 0.9 LegendMM LegendMM   98.96     LegendNANA
16:00 4.4 2.4 87 0.0 LegendMM LegendMM   99.06     LegendNANA
17:00 4.1 2.1 87 0.0 LegendMM LegendMM   99.12     LegendNANA
18:00 3.9 1.7 86 0.2 LegendMM LegendMM   99.15     LegendNANA
19:00 3.6 1.5 86 0.2 LegendMM LegendMM   99.12     LegendNANA
20:00 3.2 1.4 88 1.9 LegendMM LegendMM   99.21     LegendNANA
21:00 2.7 0.6 86 1.0 LegendMM LegendMM   99.20     LegendNANA
22:00 1.7 -0.1 88 1.5 LegendMM LegendMM   99.22     LegendNANA
23:00 0.9 -0.3 92 3.0 LegendMM LegendMM   99.16     LegendNANA

Notes on Data Quality.

Legend

  • E = Estimated
  • M = Missing
  • NA = Not Available*
  • [empty] = Indicates an unobserved value
Date modified: